{"data":{"norad_id":56783,"epoch":"2026-05-25T05:03:33.539040Z","epoch_age_seconds":63744,"freshness":"FRESH","line1":"1 56783U 23078S   26145.21080485 -.00000191  00000+0 -82185-5 0  9996","line2":"2 56783  69.9986 131.6002 0003782 263.7240  96.3489 14.98330495164630","mean_motion":14.98330495,"eccentricity":0.0003782,"inclination_deg":69.9986,"raan_deg":131.6002,"arg_perigee_deg":263.724,"mean_anomaly_deg":96.3489,"bstar":-8.2185e-6,"rev_number":16463,"period_min":96.106967375045,"perigee_km":569.42579782574,"apogee_km":574.6829225706,"semimajor_km":6950.1913601982,"source":"CELESTRAK","updated_at":"2026-05-25T13:38:18.154339Z"}}